This is the latest recevied weather packets stored in our database for station/object F4GQK-13. If no packets are shown the sender has not sent any weather packets the latest 10 day(s).
| Time | Temp. | Humidity | Pressure | Rain* | Wind** | Luminosity | Snow |
|---|---|---|---|---|---|---|---|
| 1777570805 | 21.11° C | 40% | 1019.4 hPa | 0 mm | - | 97 W/m² | - |
| 1777570505 | 21.67° C | 38% | 1019.4 hPa | 0 mm | - | 193 W/m² | - |
| 1777570205 | 21.67° C | 38% | 1019.4 hPa | 0 mm | - | 193 W/m² | - |
| 1777569904 | 21.67° C | 38% | 1019.4 hPa | 0 mm | - | 193 W/m² | - |
| 1777569605 | 21.67° C | 38% | 1019.4 hPa | 0 mm | - | 193 W/m² | - |
| 1777569305 | 21.67° C | 38% | 1019.4 hPa | 0 mm | - | 193 W/m² | - |
| 1777569004 | 21.67° C | 38% | 1019.4 hPa | 0 mm | - | 193 W/m² | - |
| 1777568705 | 21.67° C | 38% | 1019.4 hPa | 0 mm | - | 193 W/m² | - |
| 1777568405 | 21.67° C | 39% | 1019.6 hPa | 0 mm | - | 209 W/m² | - |
| 1777568105 | 22.22° C | 39% | 1019.4 hPa | 0 mm | - | 223 W/m² | - |
| 1777567805 | 22.22° C | 39% | 1019.5 hPa | 0 mm | - | 238 W/m² | - |
| 1777567505 | 22.22° C | 40% | 1019.4 hPa | 0 mm | - | 254 W/m² | - |
| 1777567205 | 22.22° C | 39% | 1019.3 hPa | 0 mm | - | 268 W/m² | - |
| 1777566905 | 22.22° C | 39% | 1019.4 hPa | 0 mm | - | 285 W/m² | - |
| 1777566606 | 22.22° C | 39% | 1019.3 hPa | 0 mm | - | 309 W/m² | - |
| 1777566305 | 22.22° C | 39% | 1019.4 hPa | 0 mm | - | 314 W/m² | - |
| 1777566004 | 22.22° C | 39% | 1019.4 hPa | 0 mm | - | 330 W/m² | - |
| 1777565705 | 22.22° C | 38% | 1019.5 hPa | 0 mm | - | 347 W/m² | - |
| 1777565405 | 22.22° C | 38% | 1019.4 hPa | 0 mm | - | 360 W/m² | - |
| 1777565105 | 22.22° C | 39% | 1019.5 hPa | 0 mm | - | 389 W/m² | - |
| 1777564804 | 22.22° C | 39% | 1019.3 hPa | 0 mm | - | 391 W/m² | - |
| 1777564505 | 22.78° C | 37% | 1019.4 hPa | 0 mm | - | 405 W/m² | - |
| 1777564205 | 22.78° C | 38% | 1019.2 hPa | 0 mm | - | 420 W/m² | - |
| 1777563905 | 22.78° C | 38% | 1019.2 hPa | 0 mm | - | 436 W/m² | - |
| 1777563605 | 22.78° C | 39% | 1019.2 hPa | 0 mm | - | 448 W/m² | - |
* Rain latest hour (hover to see other rain measurements)
** Current wind speed in m/s (hover to see current wind gust speed)